"Pseudo-MPEC" for C0Z85T2

Created 2019 Sep 12 12:07:13 UT using Find_Orb

Click here for an explanation of pseudo-MPECs

 
 Astrometry: 
     C0Z85T2  C2019 09 07.48506 03 21 54.70 +17 21 35.3    ~97CM 21.0 GVNEOCPG96
     C0Z85T2  C2019 09 07.48936 03 21 52.59 +17 21 07.4    ~97CM       VNEOCPG96
     C0Z85T2  C2019 09 07.49365 03 21 50.42 +17 20 39.7    ~97CM 21.1 GVNEOCPG96
     C0Z85T2  C2019 09 07.49794 03 21 48.30 +17 20 12.6    ~97CM 20.8 GVNEOCPG96

Station data:
(G96) Mt. Lemmon Survey  (N32.442754 W110.788720)  US/Arizona.  Observers T.
   A. Pruyne, B. M. Africano, E. J. Christensen, G. A. Farneth, D. C. Fuls,
   A. R. Gibbs, A. D. Grauer, H. Groeller, J. A. Johnson, R. A. Kowalski, S.
   M. Larson, G. J. Leonard, D. Rankin, R. L. Seaman, F. C. Shelly. 1.5-m
   reflector + 10K CCD.

Orbital elements:  C0Z85T2
   Perihelion 2019 May 31.746255 +/- 65.2 TT = 17:54:36 (JD 2458635.246255)
Epoch 2019 Sep  7.0 TT = JDT 2458733.5   Earth MOID: 0.0064   AutoNEOCP
M  97.67397017 +/- 90               (J2000 ecliptic)
n   0.99409920 +/- 0.844            Peri.   69.38910 +/- 70
a   0.99429723 +/- 0.563            Node   165.81449 +/- 24
e   0.1200744 +/- 0.208             Incl.    3.42257 +/- 60
P   0.99/362.13d           H 25.7   G  0.15   U 12.6  SR
q 0.87490753 +/- 0.368    Q 1.11368693 +/- 13.5
From 4 observations 2019 Sept. 7 (18.5 min); mean residual 0".20
Residuals in arcseconds: 
190907 G96  .14-  .18+    190907 G96  .19-  .27-    
190907 G96  .30+  .13-    190907 G96  .02+  .23+    

Ephemerides (geocentric):
Date (UTC) HH   RA              Dec         delta   r     elong  mag " sig PA
---- -- -- --  -------------   -----------  ------ ------ -----  --- ---- ---
2019 09 12 12  02 48 17.984   +08 34 14.61  .04571 1.0344 126.6 21.0  59d 169
2019 09 12 13  02 48 02.085   +08 29 59.52  .04573 1.0345 126.7 21.0  60d 168
2019 09 12 14  02 47 46.200   +08 25 44.63  .04576 1.0345 126.8 21.0  60d 168
2019 09 12 15  02 47 30.329   +08 21 29.95  .04578 1.0346 126.9 21.0  60d 168
2019 09 12 16  02 47 14.472   +08 17 15.47  .04580 1.0347 127.0 21.0  60d 168
2019 09 12 17  02 46 58.629   +08 13 01.21  .04583 1.0348 127.1 21.0  60d 168
2019 09 12 18  02 46 42.800   +08 08 47.16  .04585 1.0349 127.3 21.0  60d 168
2019 09 12 19  02 46 26.985   +08 04 33.32  .04588 1.0349 127.4 21.0  60d 168
2019 09 12 20  02 46 11.183   +08 00 19.69  .04590 1.0350 127.5 21.0  60d 168
2019 09 12 21  02 45 55.396   +07 56 06.28  .04593 1.0351 127.6 21.0  60d 168
2019 09 12 22  02 45 39.622   +07 51 53.08  .04596 1.0352 127.7 21.0  60d 168
2019 09 12 23  02 45 23.862   +07 47 40.11  .04598 1.0352 127.9 21.0  61d 168
2019 09 13 00  02 45 08.117   +07 43 27.35  .04601 1.0353 128.0 21.0  61d 168
2019 09 13 01  02 44 52.385   +07 39 14.82  .04603 1.0354 128.1 21.0  61d 168
2019 09 13 02  02 44 36.667   +07 35 02.51  .04606 1.0355 128.2 21.0  61d 168
2019 09 13 03  02 44 20.963   +07 30 50.42  .04608 1.0356 128.3 21.0  61d 168
2019 09 13 04  02 44 05.272   +07 26 38.56  .04611 1.0356 128.4 21.0  61d 168
2019 09 13 05  02 43 49.596   +07 22 26.93  .04614 1.0357 128.6 21.0  61d 168
2019 09 13 06  02 43 33.933   +07 18 15.53  .04616 1.0358 128.7 21.0  61d 168
2019 09 13 07  02 43 18.285   +07 14 04.35  .04619 1.0359 128.8 20.9  61d 168
2019 09 13 08  02 43 02.650   +07 09 53.41  .04622 1.0359 128.9 20.9  61d 169
2019 09 13 09  02 42 47.029   +07 05 42.70  .04624 1.0360 129.0 20.9  62d 169
2019 09 13 10  02 42 31.422   +07 01 32.23  .04627 1.0361 129.1 20.9  62d 169
2019 09 13 11  02 42 15.829   +06 57 21.99  .04630 1.0362 129.3 20.9  62d 169
2019 09 13 12  02 42 00.249   +06 53 11.99  .04633 1.0363 129.4 20.9  62d 169
2019 09 13 13  02 41 44.684   +06 49 02.23  .04635 1.0363 129.5 20.9  62d 169
2019 09 13 14  02 41 29.132   +06 44 52.70  .04638 1.0364 129.6 20.9  62d 169
2019 09 13 15  02 41 13.594   +06 40 43.42  .04641 1.0365 129.7 20.9  62d 169
2019 09 13 16  02 40 58.070   +06 36 34.38  .04644 1.0366 129.8 20.9  62d 169
2019 09 13 17  02 40 42.560   +06 32 25.59  .04646 1.0366 130.0 20.9  62d 169
2019 09 13 18  02 40 27.063   +06 28 17.04  .04649 1.0367 130.1 20.9  62d 169
2019 09 13 19  02 40 11.581   +06 24 08.74  .04652 1.0368 130.2 20.9  62d 169
2019 09 13 20  02 39 56.112   +06 20 00.69  .04655 1.0369 130.3 20.9  62d 169
2019 09 13 21  02 39 40.657   +06 15 52.89  .04658 1.0369 130.4 20.9  62d 169
2019 09 13 22  02 39 25.215   +06 11 45.33  .04661 1.0370 130.5 20.9  62d 169
2019 09 13 23  02 39 09.788   +06 07 38.03  .04663 1.0371 130.6 20.9  62d 169
2019 09 14 00  02 38 54.374   +06 03 30.99  .04666 1.0372 130.8 20.9  62d 169
2019 09 14 01  02 38 38.975   +05 59 24.20  .04669 1.0373 130.9 20.9  63d 169
2019 09 14 02  02 38 23.588   +05 55 17.66  .04672 1.0373 131.0 20.9  63d 169
2019 09 14 03  02 38 08.216   +05 51 11.38  .04675 1.0374 131.1 20.9  63d 169
2019 09 14 04  02 37 52.858   +05 47 05.36  .04678 1.0375 131.2 20.9  63d 169
2019 09 14 05  02 37 37.513   +05 42 59.60  .04681 1.0376 131.3 20.9  63d 169
2019 09 14 06  02 37 22.182   +05 38 54.11  .04684 1.0376 131.4 20.9  63d 169
2019 09 14 07  02 37 06.865   +05 34 48.87  .04687 1.0377 131.6 20.9  63d 169
2019 09 14 08  02 36 51.561   +05 30 43.90  .04690 1.0378 131.7 20.9  63d 169
2019 09 14 09  02 36 36.272   +05 26 39.20  .04693 1.0379 131.8 20.9  63d 169
2019 09 14 10  02 36 20.996   +05 22 34.76  .04696 1.0380 131.9 20.9  63d 169
2019 09 14 11  02 36 05.734   +05 18 30.58  .04699 1.0380 132.0 20.9  63d 169